Regional Weather Roundup
Issued by NWS

Home | Current Version | Previous Version | Graphics & Text | Print | Product List | Glossary Off
Versions: 1 2 3 4 5 6 7 8 9 10 11 12 13 14 15 16 17 18 19 20 21 22 23 24 25 26 27 28 29 30 31 32 33 34 35 36 37 38 39 40 41 42 43 44 45 46 47 48 49 50

000
ASUS43 KDMX 011303
RWRIA

WEATHER ROUNDUP FOR IOWA
NATIONAL WEATHER SERVICE DES MOINES IA
800 AM CDT SAT OCT 01 2016

NOTE: "FAIR" INDICATES FEW OR NO CLOUDS BELOW 12,000 FEET WITH NO
SIGNIFICANT WEATHER AND/OR OBSTRUCTIONS TO VISIBILITY.

* - THESE STATIONS ARE NOT NWS STATIONS...THUS NOT UNDER NWS
QUALITY CONTROL.  THEY ALSO DO NOT REPORT WEATHER SUCH
AS PRECIPITATION OR FOG.

IAZ001>003-012>014-020>022-031>034-043>046-011400-
   NORTHWEST IOWA

CITY           SKY/WX    TMP DP  RH WIND       PRES   REMARKS
CARROLL *      CLOUDY    59  57  94 N3        30.14S FOG
CHEROKEE *     CLOUDY    58  57  99 NE3       30.15S
DENISON *      CLOUDY    57  57 100 CALM      30.13S
LE MARS *      CLOUDY    57  55  94 CALM      30.17R
SHELDON *      CLOUDY    57  57 100 CALM      30.15S
SIOUX CITY     CLOUDY    58  55  90 CALM      30.15S
SPENCER        CLOUDY    59  56  89 N5        30.16S
STORM LAKE *   CLOUDY    57  55  94 N3        30.16R
$$

IAZ055>058-069>071-079>083-090>094-011400-
   SOUTHWEST IOWA

CITY           SKY/WX    TMP DP  RH WIND       PRES   REMARKS
ATLANTIC *     CLOUDY    57  57 100 CALM      30.14R
AUDUBON *      CLOUDY    57  54  88 CALM      30.15R
CLARINDA *       N/A     59  57  94 MISG      30.15S
COUNCIL BLFS * CLOUDY    57  55  94 N5        30.15S
CRESTON *      CLOUDY    57  57 100 N5        30.14S
HARLAN  *      CLOUDY    57  57 100 CALM      30.18R
LAMONI         CLOUDY    58  57  97 N7        30.12S
RED OAK *      CLOUDY    59  57  94 CALM      30.15R FOG
SHENANDOAH *   CLOUDY    57  55  94 CALM      30.15S
$$

IAZ047>049-059>061-072>074-084-011400-
   CENTRAL IOWA

CITY           SKY/WX    TMP DP  RH WIND       PRES   REMARKS
AMES           CLOUDY    59  59 100 N5        30.12S
ANKENY *         N/A    N/A N/A N/A MISG        N/A
BOONE *        CLOUDY    59  57  94 N5        30.12S
CHARITON *       N/A     57  57 100 N6        30.11S FOG
DES MOINES     CLOUDY    60  58  92 N3        30.12R
GRINNELL*      CLOUDY    58  56  92 N5        30.12R
KNOXVILLE *    CLOUDY    59  57  94 NW6       30.10R FOG
MARSHALLTOWN   CLOUDY    58  58 100 N7        30.12R FOG
NEWTON *       CLOUDY    59  57  94 N8        30.11R FOG
PELLA *        RAIN      59  57  95 N3        30.12R
PERRY *        CLOUDY    58  58  99 NW3       30.13S
$$

IAZ004>006-015-016-023>025-035-036-011400-
   NORTH CENTRAL IOWA

CITY           SKY/WX    TMP DP  RH WIND       PRES   REMARKS
ALGONA *       CLOUDY    57  55  94 CALM      30.16S
CLARION *      CLOUDY    59  59 100 N5        30.14S
ESTHERVILLE    CLOUDY    57  55  93 CALM      30.15F
FORT DODGE *   CLOUDY    57  54  88 N3        30.15S
MASON CITY     MOCLDY    58  56  93 CALM      30.15S
FOREST CITY *  CLOUDY    57  55  94 CALM      30.14S
WEBSTER CITY * CLOUDY    57  57 100 N5        30.12R
IOWA FALLS *   CLOUDY    58  56  94 N6        30.14S FOG
$$

IAZ007>011-017>019-026>030-037>042-050>054-066-011400-
   NORTHEAST IOWA

CITY           SKY/WX    TMP DP  RH WIND       PRES   REMARKS
CEDAR RAPIDS   CLOUDY    59  59 100 N7        30.09R FOG
CHARLES CITY * CLOUDY    59  59 100 N7        30.14R FOG
CLINTON *      LGT RAIN  60  59  96 N7        30.06S
DECORAH *      MOCLDY    57  57 100 VRB7      30.12S
DUBUQUE        CLOUDY    58  58 100 N8        30.08S FOG
MONTICELLO *   CLOUDY    59  59 100 VRB5      30.08S FOG
OELWEIN *      CLOUDY    57  57 100 N6        30.12S FOG
WATERLOO       CLOUDY    57  56  96 N6        30.11S FOG
$$

IAZ064-065-067-068-078-011400-
   EAST CENTRAL IOWA

CITY           SKY/WX    TMP DP  RH WIND       PRES   REMARKS
DAVENPORT      CLOUDY    59  58  96 N5        30.06S FOG
IOWA CITY      CLOUDY    60  58  92 N6        30.10R FOG
MUSCATINE *    CLOUDY    61  59  94 NW6       30.07S FOG
QUAD CITIES    CLOUDY    61  58  90 NW6       30.05S
$$

IAZ062-063-075>077-085>089-095>099-011400-
   SOUTHEAST IOWA

CITY           SKY/WX    TMP DP  RH WIND       PRES   REMARKS
BURLINGTON     CLOUDY    59  59 100 NW6       30.07R FOG
FAIRFIELD *    CLOUDY    59  57  94 NW6       30.09R
FORT MADISON *   N/A     61  57  88 NW3       30.08S
KEOKUK *       CLOUDY    59  59 100 NW6       30.07S FOG
OSKALOOSA *    CLOUDY    58  57  96 NW6       30.11R
OTTUMWA        CLOUDY    60  57  89 NW7       30.10R
WASHINGTON *     N/A    N/A N/A N/A MISG        N/A
$$

ABBREVIATIONS USED IN REMARKS
   TC - TEMPERATURES IN CELSIUS
  WCI - WIND CHILL INDEX
   HX - HEAT INDEX
  VSB - VISIBILITY
$$





USA.gov is the U.S. government's official web portal to all federal, state and local government web resources and services.